Location: Le Rocchette
(44.3500°N, 7.8333°E)
Time: 11:29:41
(UTC+00:00)

Okean 3 Rocket - Pass Details

Date: 17 November 2019
Orbit: 614 x 646 km, 82.5° (Epoch: 14 December)

Event Time Altitude Azimuth Distance (km) Brightness Sun altitude
Rises 05:03:32 0° 209° (SSW) 2,940 6.9 -14.8°
Reaches altitude 10° 05:05:56 10° 218° (SW) 2,032 6.0 -14.4°
Maximum altitude 05:10:05 35° 285° (WNW) 1,029 4.1 -13.7°
Drops below altitude 10° 05:14:14 10° 352° (N) 2,031 6.0 -13.0°
Sets 05:16:38 0° 1° (N) 2,938 6.9 -12.6°
